Dobrodošli na spletni strani vremenske postaje Senovo. Vse informacije so informativnega značaja, saj vremenska postaja ni del državne mreže meteoroloških postaj. AKTUALNIH OBVESTIL NI.


Posebna pozornost v zvezi z vremenskimi dogajanji ni potrebna.    Posebna pozornost v zvezi z vremenskimi dogajanji ni potrebna.

Pogled proti Armezu več informacij Pogled proti Armezu


Lisca več informacij Lisca


Radar strel več informacij blitzortung!


Radar padavin več informacij rain snow radar


Obiščite še:

Template documentation
and downloads

And another site



Weather Underground, zgodovina - Tekstovno

Dnevni povzetek za Nil La, TWC- Enote:  Angleško    Metrično   Obe
« Predhodni Dan
Naslednji Dan »
Dnevni Tedenski Mesečni Letni Po meri
  Višja: Nižja: Povprečje:
Temperatura: TemperatureC °F 0.2 °F 1 °F
Točka rosišča: DewpointC °F -4.1 °F -3 °F
Vlažnost: Humidity % 72 % 74 %
Hitrost vetra: WindSpeedKMH mph 1.6 mph 6.5 mph
Sunki vetra: WindSpeedGustKMH mph - -
Veter:- - ENE
Zračni tlak: PressurehPa in 1009.0 in -
Padavine: 0.5 in    
Historical Graphs
 
 
Tabelarni podarki za Nil La, TWC-
Čas Temperatura Točka rosišča Zračni tlak Veter Hitrost vetra Sunki vetra Vlažnost Intenziteta padavin (urna)
TemperatureC °F DewpointC °F PressurehPa in Calm     Humidity % HourlyPrecipMM in
00:03 0.4 °F -4.1 °F 1013.1 in ENE 6.4 mph 13.7 mph 72 % 0.0 in
00:08 0.4 °F -3.9 °F 1013.1 in ENE 6.0 mph 10.5 mph 73 % 0.0 in
00:13 0.4 °F -4.1 °F 1013.1 in ENE 6.9 mph 9.7 mph 72 % 0.0 in
00:18 0.4 °F -4.1 °F 1013.1 in East 7.2 mph 10.5 mph 72 % 0.0 in
00:23 0.4 °F -3.9 °F 1012.1 in East 7.9 mph 12.6 mph 73 % 0.0 in
00:28 0.4 °F -3.9 °F 1012.1 in East 7.9 mph 12.6 mph 73 % 0.0 in
00:33 0.4 °F -3.9 °F 1012.1 in East 7.4 mph 12.6 mph 73 % 0.0 in
00:38 0.4 °F -3.9 °F 1013.1 in ENE 8.4 mph 17.7 mph 73 % 0.0 in
00:43 0.3 °F -4.0 °F 1013.1 in ENE 8.0 mph 17.7 mph 73 % 0.0 in
00:48 0.3 °F -4.0 °F 1013.1 in ENE 6.0 mph 10.5 mph 73 % 0.0 in
00:53 0.3 °F -4.0 °F 1013.1 in ENE 6.4 mph 13.7 mph 73 % 0.0 in
00:58 0.2 °F -4.1 °F 1013.1 in ENE 8.4 mph 16.6 mph 73 % 0.0 in
01:03 0.2 °F -4.1 °F 1013.1 in ENE 7.4 mph 16.6 mph 73 % 0.0 in
01:06 0.2 °F -4.1 °F 1013.1 in ENE 6.4 mph 15.4 mph 73 % 0.0 in
01:11 0.2 °F -4.1 °F 1013.1 in East 5.8 mph 15.4 mph 73 % 0.0 in
01:16 0.2 °F -4.1 °F 1013.1 in East 6.0 mph 12.6 mph 73 % 0.0 in
01:21 0.2 °F -4.1 °F 1013.1 in East 7.4 mph 21.6 mph 73 % 0.0 in
01:26 0.3 °F -4.0 °F 1013.1 in ENE 9.8 mph 21.6 mph 73 % 0.0 in
01:31 0.3 °F -4.0 °F 1013.1 in ENE 9.2 mph 14.0 mph 73 % 0.0 in
01:36 0.4 °F -3.7 °F 1013.1 in ENE 8.7 mph 16.6 mph 74 % 0.0 in
01:41 0.4 °F -3.7 °F 1012.1 in ENE 9.3 mph 16.6 mph 74 % 0.0 in
01:46 0.4 °F -3.7 °F 1012.1 in ENE 9.7 mph 19.1 mph 74 % 0.0 in
01:51 0.4 °F -3.7 °F 1012.1 in ENE 9.7 mph 19.1 mph 74 % 0.0 in
01:56 0.4 °F -3.7 °F 1012.1 in ENE 10.1 mph 20.9 mph 74 % 0.0 in
02:01 0.4 °F -3.7 °F 1012.1 in ENE 10.3 mph 20.9 mph 74 % 0.0 in
02:06 0.4 °F -3.7 °F 1012.1 in ENE 9.5 mph 17.7 mph 74 % 0.0 in
02:11 0.4 °F -3.7 °F 1012.1 in ENE 9.7 mph 17.7 mph 74 % 0.0 in
02:16 0.4 °F -3.7 °F 1012.1 in ENE 9.5 mph 19.1 mph 74 % 0.0 in
02:21 0.4 °F -3.7 °F 1012.1 in East 9.0 mph 19.1 mph 74 % 0.0 in
02:26 0.4 °F -3.7 °F 1012.1 in ENE 9.8 mph 20.1 mph 74 % 0.0 in
02:31 0.4 °F -3.7 °F 1012.1 in ENE 8.5 mph 20.1 mph 74 % 0.0 in
02:36 0.4 °F -3.7 °F 1012.1 in ENE 7.7 mph 12.2 mph 74 % 0.0 in
02:41 0.4 °F -3.7 °F 1012.1 in ENE 7.6 mph 11.9 mph 74 % 0.0 in
02:46 0.4 °F -3.7 °F 1012.1 in ENE 7.2 mph 13.0 mph 74 % 0.0 in
02:51 0.4 °F -3.7 °F 1012.1 in NE 6.8 mph 13.7 mph 74 % 0.0 in
02:56 0.4 °F -3.7 °F 1012.1 in ENE 6.1 mph 13.7 mph 74 % 0.0 in
03:01 0.4 °F -3.7 °F 1012.1 in ENE 6.6 mph 13.7 mph 74 % 0.0 in
03:06 0.4 °F -3.7 °F 1012.1 in NE 8.0 mph 13.7 mph 74 % 0.0 in
03:11 0.4 °F -3.7 °F 1011.1 in NE 8.2 mph 12.2 mph 74 % 0.0 in
03:16 0.4 °F -3.7 °F 1011.1 in ENE 7.4 mph 16.9 mph 74 % 0.0 in
03:21 0.4 °F -3.7 °F 1011.1 in ENE 8.4 mph 16.9 mph 74 % 0.0 in
03:26 0.4 °F -3.7 °F 1011.1 in ENE 9.5 mph 15.8 mph 74 % 0.0 in
03:31 0.4 °F -3.7 °F 1011.1 in ENE 8.7 mph 15.8 mph 74 % 0.0 in
03:36 0.4 °F -3.7 °F 1011.1 in ENE 8.7 mph 16.6 mph 74 % 0.0 in
03:41 0.4 °F -3.7 °F 1011.1 in ENE 8.0 mph 16.6 mph 74 % 0.0 in
03:46 0.4 °F -3.7 °F 1011.1 in NE 6.9 mph 11.9 mph 74 % 0.0 in
03:51 0.4 °F -3.7 °F 1011.1 in ENE 6.6 mph 13.7 mph 74 % 0.0 in
03:56 0.4 °F -3.7 °F 1011.1 in NE 7.2 mph 13.7 mph 74 % 0.0 in
04:01 0.4 °F -3.7 °F 1011.1 in NE 7.2 mph 13.7 mph 74 % 0.0 in
04:06 0.4 °F -3.7 °F 1011.1 in ENE 7.2 mph 13.7 mph 74 % 0.0 in
04:11 0.4 °F -3.7 °F 1010.0 in ENE 8.7 mph 13.7 mph 74 % 0.0 in
04:16 0.4 °F -3.7 °F 1010.0 in NE 7.9 mph 11.9 mph 74 % 0.0 in
04:21 0.4 °F -3.7 °F 1010.0 in NE 7.4 mph 11.9 mph 74 % 0.0 in
04:26 0.4 °F -3.7 °F 1011.1 in NE 7.4 mph 11.9 mph 74 % 0.0 in
04:31 0.4 °F -3.7 °F 1011.1 in NE 7.7 mph 11.9 mph 74 % 0.0 in
04:36 0.4 °F -3.7 °F 1011.1 in ENE 6.8 mph 14.8 mph 74 % 0.0 in
04:41 0.4 °F -3.7 °F 1011.1 in NE 8.0 mph 15.8 mph 74 % 0.0 in
04:42 0.4 °F -3.7 °F 1011.1 in NE 8.2 mph 15.8 mph 74 % 0.0 in
04:47 0.4 °F -3.7 °F 1011.1 in NE 10.0 mph 15.8 mph 74 % 0.0 in
04:52 0.4 °F -3.7 °F 1011.1 in NE 10.1 mph 23.3 mph 74 % 0.0 in
04:57 0.4 °F -3.7 °F 1011.1 in NE 9.7 mph 23.3 mph 74 % 0.0 in
05:02 0.4 °F -3.7 °F 1011.1 in NE 7.4 mph 13.0 mph 74 % 0.0 in
05:07 0.4 °F -3.5 °F 1011.1 in NE 6.9 mph 9.3 mph 75 % 0.0 in
05:12 0.4 °F -3.5 °F 1012.1 in NE 6.8 mph 10.5 mph 75 % 0.0 in
05:17 0.5 °F -3.4 °F 1012.1 in NE 6.8 mph 13.0 mph 75 % 0.0 in
05:22 0.5 °F -3.4 °F 1012.1 in ENE 6.3 mph 13.0 mph 75 % 0.0 in
05:27 0.5 °F -3.4 °F 1011.1 in NE 5.3 mph 11.9 mph 75 % 0.0 in
05:32 0.5 °F -3.4 °F 1011.1 in NE 6.3 mph 11.9 mph 75 % 0.0 in
05:37 0.5 °F -3.4 °F 1011.1 in NE 8.4 mph 14.0 mph 75 % 0.0 in
05:42 0.5 °F -3.4 °F 1011.1 in NE 8.7 mph 14.3 mph 75 % 0.0 in
05:47 0.5 °F -3.4 °F 1011.1 in ENE 7.6 mph 14.8 mph 75 % 0.0 in
05:52 0.5 °F -3.4 °F 1011.1 in NE 7.9 mph 16.3 mph 75 % 0.0 in
05:57 0.6 °F -3.3 °F 1011.1 in NE 7.9 mph 16.3 mph 75 % 0.0 in
06:02 0.6 °F -3.3 °F 1011.1 in ENE 5.8 mph 15.4 mph 75 % 0.0 in
06:08 0.6 °F -3.3 °F 1011.1 in NE 6.6 mph 11.9 mph 75 % 0.0 in
06:13 0.6 °F -3.3 °F 1011.1 in NE 7.2 mph 16.9 mph 75 % 0.0 in
06:18 0.6 °F -3.3 °F 1011.1 in ENE 6.8 mph 16.9 mph 75 % 0.0 in
06:23 0.6 °F -3.3 °F 1011.1 in ENE 6.9 mph 14.0 mph 75 % 0.0 in
06:28 0.6 °F -3.3 °F 1011.1 in ENE 8.0 mph 12.6 mph 75 % 0.0 in
06:33 0.6 °F -3.3 °F 1011.1 in ENE 7.7 mph 15.8 mph 75 % 0.0 in
06:38 0.6 °F -3.3 °F 1011.1 in ENE 6.0 mph 15.8 mph 75 % 0.0 in
06:43 0.6 °F -3.3 °F 1011.1 in NE 7.2 mph 14.0 mph 75 % 0.0 in
06:48 0.6 °F -3.3 °F 1011.1 in ENE 9.8 mph 17.7 mph 75 % 0.0 in
06:53 0.6 °F -3.3 °F 1011.1 in NE 10.0 mph 20.1 mph 75 % 0.0 in
06:58 0.6 °F -3.3 °F 1011.1 in NE 9.3 mph 20.1 mph 75 % 0.0 in
07:03 0.6 °F -3.3 °F 1011.1 in ENE 7.4 mph 19.8 mph 75 % 0.0 in
07:08 0.6 °F -3.3 °F 1011.1 in NE 5.5 mph 13.7 mph 75 % 0.0 in
07:13 0.6 °F -3.3 °F 1011.1 in ENE 5.6 mph 13.0 mph 75 % 0.0 in
07:18 0.6 °F -3.3 °F 1011.1 in ENE 6.4 mph 15.8 mph 75 % 0.0 in
07:23 0.6 °F -3.3 °F 1011.1 in ENE 6.9 mph 15.8 mph 75 % 0.0 in
07:28 0.6 °F -3.3 °F 1011.1 in ENE 6.1 mph 11.6 mph 75 % 0.0 in
07:33 0.6 °F -3.3 °F 1011.1 in ENE 6.3 mph 13.0 mph 75 % 0.0 in
07:38 0.7 °F -3.2 °F 1011.1 in ENE 7.7 mph 16.6 mph 75 % 0.0 in
07:43 0.7 °F -3.2 °F 1011.1 in ENE 7.1 mph 16.6 mph 75 % 0.0 in
07:48 0.7 °F -3.2 °F 1011.1 in NE 5.5 mph 10.1 mph 75 % 0.0 in
07:53 0.7 °F -3.2 °F 1011.1 in ENE 5.3 mph 9.0 mph 75 % 0.0 in
07:58 0.7 °F -3.2 °F 1011.1 in ENE 5.8 mph 13.0 mph 75 % 0.0 in
08:03 0.8 °F -3.1 °F 1011.1 in ENE 7.4 mph 13.0 mph 75 % 0.0 in
08:08 0.8 °F -3.1 °F 1011.1 in ENE 7.2 mph 13.0 mph 75 % 0.0 in
08:13 0.8 °F -3.1 °F 1011.1 in ENE 6.8 mph 13.7 mph 75 % 0.0 in
08:18 0.9 °F -3.1 °F 1011.1 in NE 8.5 mph 14.0 mph 75 % 0.0 in
08:23 0.9 °F -3.1 °F 1011.1 in NE 7.4 mph 14.0 mph 75 % 0.0 in
08:28 0.9 °F -3.1 °F 1011.1 in ENE 5.5 mph 11.9 mph 75 % 0.0 in
08:33 1.0 °F -2.9 °F 1011.1 in ENE 6.1 mph 12.2 mph 75 % 0.0 in
08:38 1.0 °F -2.9 °F 1011.1 in NE 7.2 mph 15.4 mph 75 % 0.0 in
08:43 1.0 °F -2.9 °F 1011.1 in NE 6.9 mph 15.4 mph 75 % 0.0 in
08:48 1.0 °F -2.9 °F 1011.1 in ENE 5.6 mph 10.5 mph 75 % 0.0 in
08:53 1.1 °F -2.8 °F 1011.1 in NE 5.0 mph 9.0 mph 75 % 0.0 in
08:59 1.1 °F -2.8 °F 1011.1 in NNE 5.8 mph 15.4 mph 75 % 0.0 in
09:04 1.1 °F -2.8 °F 1011.1 in NE 5.6 mph 15.4 mph 75 % 0.0 in
09:09 1.1 °F -2.8 °F 1011.1 in NE 6.3 mph 20.6 mph 75 % 0.0 in
09:14 1.1 °F -2.8 °F 1011.1 in NE 6.9 mph 20.6 mph 75 % 0.0 in
09:19 1.1 °F -2.8 °F 1011.1 in NE 4.3 mph 10.5 mph 75 % 0.0 in
09:24 1.1 °F -2.8 °F 1011.1 in ENE 3.2 mph 9.0 mph 75 % 0.0 in
09:29 1.1 °F -2.8 °F 1011.1 in NE 4.3 mph 7.9 mph 75 % 0.0 in
09:34 1.1 °F -3.0 °F 1011.1 in NNE 6.1 mph 10.5 mph 74 % 0.0 in
09:39 1.2 °F -2.7 °F 1011.1 in NE 5.1 mph 10.5 mph 75 % 0.0 in
09:44 1.3 °F -2.7 °F 1011.1 in East 4.5 mph 9.7 mph 75 % 0.0 in
09:49 1.4 °F -2.6 °F 1011.1 in ENE 5.3 mph 9.7 mph 75 % 0.0 in
09:54 1.4 °F -2.6 °F 1011.1 in ENE 5.8 mph 12.2 mph 75 % 0.0 in
09:59 1.4 °F -2.6 °F 1011.1 in East 6.0 mph 12.2 mph 75 % 0.0 in
10:04 1.6 °F -2.3 °F 1011.1 in East 5.1 mph 10.5 mph 75 % 0.0 in
10:09 1.6 °F -2.3 °F 1011.1 in ENE 5.3 mph 9.3 mph 75 % 0.0 in
10:14 1.6 °F -2.3 °F 1011.1 in ENE 4.8 mph 10.5 mph 75 % 0.0 in
10:19 1.6 °F -2.3 °F 1011.1 in ENE 5.6 mph 12.6 mph 75 % 0.0 in
10:24 1.5 °F -2.6 °F 1011.1 in NNE 8.7 mph 12.6 mph 74 % 0.0 in
10:29 1.5 °F -2.6 °F 1011.1 in NNE 9.5 mph 16.9 mph 74 % 0.0 in
10:34 1.5 °F -2.6 °F 1011.1 in NNE 9.3 mph 16.9 mph 74 % 0.0 in
10:39 1.5 °F -2.6 °F 1011.1 in NE 9.2 mph 16.9 mph 74 % 0.0 in
10:44 1.6 °F -2.6 °F 1011.1 in ENE 9.3 mph 17.2 mph 74 % 0.0 in
10:49 1.6 °F -2.6 °F 1011.1 in ENE 7.6 mph 17.2 mph 74 % 0.0 in
10:54 1.6 °F -2.6 °F 1011.1 in North 4.0 mph 12.2 mph 74 % 0.0 in
10:59 1.7 °F -2.4 °F 1011.1 in East 5.3 mph 13.0 mph 74 % 0.0 in
11:04 1.7 °F -2.4 °F 1011.1 in East 7.4 mph 15.8 mph 74 % 0.0 in
11:09 1.8 °F -2.3 °F 1011.1 in East 7.1 mph 15.8 mph 74 % 0.0 in
11:14 1.9 °F -2.2 °F 1011.1 in East 7.4 mph 13.0 mph 74 % 0.0 in
11:19 1.9 °F -2.2 °F 1011.1 in East 7.1 mph 13.0 mph 74 % 0.0 in
11:24 2.0 °F -2.2 °F 1011.1 in East 6.3 mph 10.1 mph 74 % 0.0 in
11:29 2.0 °F -2.2 °F 1011.1 in East 6.0 mph 10.1 mph 74 % 0.0 in
11:34 2.1 °F -2.1 °F 1011.1 in East 6.6 mph 16.3 mph 74 % 0.0 in
11:39 2.1 °F -2.1 °F 1011.1 in NE 6.8 mph 16.3 mph 74 % 0.0 in
11:44 2.1 °F -2.1 °F 1011.1 in ENE 5.1 mph 10.5 mph 74 % 0.0 in
11:49 2.0 °F -2.3 °F 1011.1 in East 5.1 mph 10.1 mph 73 % 0.0 in
11:54 1.9 °F -2.2 °F 1011.1 in NE 5.5 mph 10.1 mph 74 % 0.0 in
11:59 1.9 °F -2.2 °F 1011.1 in NE 6.0 mph 19.8 mph 74 % 0.0 in
12:04 1.9 °F -2.4 °F 1011.1 in ENE 7.4 mph 19.8 mph 73 % 0.0 in
12:09 2.0 °F -2.3 °F 1010.0 in East 7.2 mph 12.2 mph 73 % 0.0 in
12:14 2.1 °F -2.2 °F 1010.0 in East 6.6 mph 12.2 mph 73 % 0.0 in
12:19 2.2 °F -2.2 °F 1010.0 in East 6.1 mph 10.1 mph 73 % 0.0 in
12:24 2.2 °F -2.2 °F 1010.0 in East 5.6 mph 11.1 mph 73 % 0.0 in
12:29 2.2 °F -2.2 °F 1010.0 in East 6.0 mph 11.1 mph 73 % 0.0 in
12:34 2.1 °F -2.2 °F 1010.0 in East 6.8 mph 11.6 mph 73 % 0.0 in
12:39 2.0 °F -2.3 °F 1010.0 in ENE 7.1 mph 13.0 mph 73 % 0.0 in
12:44 2.1 °F -2.2 °F 1010.0 in East 7.6 mph 14.3 mph 73 % 0.0 in
12:49 2.1 °F -2.2 °F 1010.0 in East 7.7 mph 14.3 mph 73 % 0.0 in
12:54 2.2 °F -2.2 °F 1009.0 in East 7.1 mph 13.7 mph 73 % 0.0 in
12:59 2.2 °F -2.2 °F 1009.0 in ENE 6.6 mph 12.6 mph 73 % 0.0 in
13:04 2.2 °F -2.2 °F 1009.0 in ENE 6.3 mph 12.6 mph 73 % 0.0 in
13:09 2.2 °F -2.3 °F 1009.0 in ENE 5.8 mph 11.6 mph 72 % 0.0 in
13:14 2.2 °F -2.3 °F 1009.0 in ENE 6.3 mph 14.0 mph 72 % 0.0 in
13:19 2.1 °F -2.4 °F 1009.0 in ENE 6.6 mph 14.0 mph 72 % 0.0 in
13:24 2.0 °F -2.5 °F 1009.0 in NE 6.8 mph 10.5 mph 72 % 0.0 in
13:29 2.1 °F -2.4 °F 1009.0 in NE 6.4 mph 10.1 mph 72 % 0.0 in
13:34 2.1 °F -2.4 °F 1009.0 in East 5.6 mph 10.1 mph 72 % 0.0 in
13:40 2.0 °F -2.5 °F 1009.0 in East 5.6 mph 10.1 mph 72 % 0.0 in
13:45 1.9 °F -2.6 °F 1009.0 in East 5.8 mph 10.5 mph 72 % 0.0 in
13:50 1.8 °F -2.7 °F 1009.0 in ENE 5.8 mph 11.9 mph 72 % 0.0 in
13:55 1.7 °F -2.8 °F 1009.0 in ENE 6.0 mph 11.9 mph 72 % 0.0 in
14:00 1.7 °F -2.8 °F 1009.0 in ESE 5.8 mph 10.5 mph 72 % 0.0 in
14:05 1.8 °F -2.7 °F 1009.0 in East 5.0 mph 8.7 mph 72 % 0.0 in
14:10 1.9 °F -2.6 °F 1009.0 in East 4.7 mph 7.9 mph 72 % 0.3 in
14:15 2.0 °F -2.5 °F 1009.0 in East 5.5 mph 12.2 mph 72 % 0.3 in
14:20 2.2 °F -2.2 °F 1009.0 in ESE 6.3 mph 12.2 mph 73 % 0.3 in
14:25 2.1 °F -2.2 °F 1009.0 in ESE 6.4 mph 12.2 mph 73 % 0.3 in
14:30 2.2 °F -2.2 °F 1009.0 in East 7.1 mph 15.4 mph 73 % 0.3 in
14:35 2.1 °F -2.2 °F 1009.0 in East 6.8 mph 15.4 mph 73 % 0.3 in
14:40 2.1 °F -2.2 °F 1009.0 in ENE 6.3 mph 12.6 mph 73 % 0.3 in
14:45 2.1 °F -2.2 °F 1009.0 in ENE 7.1 mph 12.6 mph 73 % 0.3 in
14:50 2.1 °F -2.2 °F 1009.0 in East 6.6 mph 10.8 mph 73 % 0.3 in
14:55 2.1 °F -2.2 °F 1009.0 in ENE 7.9 mph 17.2 mph 73 % 0.3 in
15:00 2.1 °F -2.2 °F 1009.0 in ENE 8.0 mph 17.2 mph 73 % 0.3 in
15:05 2.0 °F -2.3 °F 1009.0 in ENE 6.6 mph 14.0 mph 73 % 0.3 in
15:10 2.0 °F -2.3 °F 1009.0 in ENE 6.6 mph 14.0 mph 73 % 0.0 in
15:15 2.0 °F -2.3 °F 1009.0 in ENE 6.0 mph 9.7 mph 73 % 0.0 in
15:20 1.9 °F -2.2 °F 1009.0 in East 5.3 mph 9.7 mph 74 % 0.0 in
15:25 1.7 °F -2.4 °F 1009.0 in ENE 5.0 mph 9.3 mph 74 % 0.0 in
15:26 1.7 °F -2.4 °F 1009.0 in ENE 5.1 mph 9.3 mph 74 % 0.0 in
15:31 1.7 °F -2.4 °F 1009.0 in East 4.5 mph 9.3 mph 74 % 0.0 in
15:36 1.6 °F -2.6 °F 1009.0 in East 4.2 mph 9.0 mph 74 % 0.0 in
15:41 1.5 °F -2.6 °F 1009.0 in East 4.5 mph 9.0 mph 74 % 0.0 in
15:46 1.5 °F -2.6 °F 1009.0 in East 4.3 mph 7.9 mph 74 % 0.0 in
15:51 1.5 °F -2.6 °F 1009.0 in East 4.8 mph 9.7 mph 74 % 0.0 in
15:56 1.5 °F -2.6 °F 1009.0 in East 4.7 mph 9.7 mph 74 % 0.0 in
16:01 1.5 °F -2.6 °F 1009.0 in ESE 4.5 mph 9.3 mph 74 % 0.0 in
16:06 1.4 °F -2.7 °F 1009.0 in ESE 4.5 mph 9.3 mph 74 % 0.0 in
16:11 1.4 °F -2.6 °F 1009.0 in East 3.9 mph 7.9 mph 75 % 0.0 in
16:16 1.4 °F -2.6 °F 1009.0 in East 4.8 mph 12.6 mph 75 % 0.0 in
16:21 1.3 °F -2.7 °F 1009.0 in ESE 5.8 mph 12.6 mph 75 % 0.0 in
16:26 1.2 °F -2.7 °F 1009.0 in ESE 5.8 mph 10.8 mph 75 % 0.0 in
16:31 1.1 °F -2.8 °F 1009.0 in ESE 5.5 mph 10.8 mph 75 % 0.3 in
16:36 1.0 °F -2.9 °F 1009.0 in East 4.8 mph 9.0 mph 75 % 0.3 in
16:41 0.9 °F -2.8 °F 1009.0 in ENE 4.3 mph 7.6 mph 76 % 0.3 in
16:46 0.9 °F -2.8 °F 1009.0 in ENE 3.4 mph 6.4 mph 76 % 0.3 in
16:51 0.9 °F -2.8 °F 1009.0 in East 2.1 mph 4.3 mph 76 % 0.3 in
16:56 0.9 °F -2.8 °F 1009.0 in East 2.3 mph 5.8 mph 76 % 0.3 in
17:01 0.8 °F -2.9 °F 1009.0 in East 2.1 mph 5.8 mph 76 % 0.3 in
17:06 0.7 °F -3.1 °F 1009.0 in ENE 1.6 mph 5.5 mph 76 % 0.3 in
17:11 0.7 °F -3.1 °F 1009.0 in East 2.3 mph 5.5 mph 76 % 0.3 in
17:16 0.7 °F -2.9 °F 1009.0 in East 2.9 mph 6.1 mph 77 % 0.3 in
17:21 0.7 °F -2.9 °F 1009.0 in East 3.1 mph 6.1 mph 77 % 0.3 in
17:26 0.7 °F -2.9 °F 1009.0 in East 3.9 mph 8.7 mph 77 % 0.3 in
17:31 0.7 °F -2.9 °F 1009.0 in East 4.3 mph 8.7 mph 77 % 0.3 in
17:36 0.7 °F -2.9 °F 1009.0 in East 4.2 mph 6.9 mph 77 % 0.3 in
17:41 0.7 °F -2.9 °F 1009.0 in East 4.3 mph 6.9 mph 77 % 0.3 in
17:46 0.7 °F -2.7 °F 1009.0 in East 5.1 mph 9.7 mph 78 % 0.3 in
17:51 0.7 °F -2.7 °F 1009.0 in NE 3.9 mph 9.7 mph 78 % 0.3 in
17:56 0.6 °F -2.8 °F 1009.0 in ENE 2.4 mph 9.0 mph 78 % 0.0 in
18:01 0.7 °F -2.7 °F 1009.0 in ENE 5.8 mph 15.8 mph 78 % 0.0 in
18:06 0.7 °F -2.7 °F 1009.0 in NE 6.6 mph 15.8 mph 78 % 0.0 in
18:11 0.7 °F -2.7 °F 1010.0 in ENE 5.0 mph 10.5 mph 78 % 0.0 in
18:16 0.7 °F -2.7 °F 1010.0 in ESE 4.2 mph 8.7 mph 78 % 0.0 in
18:21 0.7 °F -2.7 °F 1010.0 in ENE 4.7 mph 9.3 mph 78 % 0.0 in
18:26 0.7 °F -2.7 °F 1010.0 in ENE 5.0 mph 9.3 mph 78 % 0.0 in
18:31 0.7 °F -2.7 °F 1010.0 in East 2.9 mph 6.9 mph 78 % 0.0 in
18:36 0.7 °F -2.7 °F 1010.0 in NE 3.5 mph 16.6 mph 78 % 0.0 in
18:41 0.7 °F -2.7 °F 1010.0 in NE 6.0 mph 16.6 mph 78 % 0.0 in
18:46 0.7 °F -2.7 °F 1010.0 in ENE 5.5 mph 12.2 mph 78 % 0.0 in
18:51 0.8 °F -2.6 °F 1010.0 in ENE 5.6 mph 10.1 mph 78 % 0.0 in
18:57 0.8 °F -2.6 °F 1010.0 in ENE 6.1 mph 10.1 mph 78 % 0.0 in
19:02 0.8 °F -2.6 °F 1010.0 in ENE 4.3 mph 6.9 mph 78 % 0.0 in
19:07 0.8 °F -2.6 °F 1010.0 in ENE 3.5 mph 7.9 mph 78 % 0.0 in
19:12 0.8 °F -2.6 °F 1011.1 in NE 5.1 mph 13.7 mph 78 % 0.0 in
19:17 0.8 °F -2.6 °F 1011.1 in NE 6.1 mph 13.7 mph 78 % 0.0 in
19:22 0.8 °F -2.6 °F 1011.1 in ENE 5.6 mph 10.5 mph 78 % 0.0 in
19:27 0.8 °F -2.6 °F 1011.1 in East 4.7 mph 9.3 mph 78 % 0.0 in
19:32 0.8 °F -2.6 °F 1011.1 in East 5.6 mph 11.9 mph 78 % 0.0 in
19:37 0.8 °F -2.6 °F 1011.1 in East 7.2 mph 15.4 mph 78 % 0.0 in
19:42 0.8 °F -2.6 °F 1011.1 in East 7.1 mph 15.4 mph 78 % 0.0 in
19:47 0.8 °F -2.6 °F 1011.1 in East 7.1 mph 12.2 mph 78 % 0.0 in
19:52 0.8 °F -2.6 °F 1011.1 in East 8.0 mph 16.9 mph 78 % 0.0 in
19:57 0.8 °F -2.6 °F 1011.1 in East 7.4 mph 16.9 mph 78 % 0.0 in
20:02 0.8 °F -2.6 °F 1011.1 in East 6.6 mph 13.0 mph 78 % 0.0 in
Vremenska postaja Senovo
Podatki zbrani iz Weather Underground - 2.75 mb

Script developed by  Jim McMurry - jmcmurry@mwt.net Adapted for the template by  Wim van der Kuil - Leuven-Template.eu

Vremenski podatki so objavljeni na:

European Weather Network

WeatherCloud

Weather Underground

AWEKAS

HAMweather, WeatherForYou, PWS Weather

MapView

Geostik

Slovenia weather network

Oprema, ki se uporablja:

Vremenski program
Cumulus

Vremenski server
Asus

Cumulus

Asus